Find Starlink 32555

NORAD ID: 61918 Int'l Des: 2024-207 Owner: SPXS Country: US Constellation: starlink operational
LEOCIRCULAR

Live Position

Loading 3D Globe...

About Starlink 32555

Description loading...

Upcoming Passes

Passes for default location (London). Set your location on the main map for personalized predictions.

Altitude History

Loading altitude history...

Two-Line Element Set

1 61918U 24207G 26105.60975226 .00007959 00000-0 29828-3 0 9993
2 61918 42.9985 77.1134 0000892 277.8460 82.2290 15.27595571 80323
Epoch: Apr 15, 2026 • Age: 6 hours

Current Status

Altitude 491.5 km
Velocity 7.62 km/s
Sub-Earth Point -32.52°S, 121.46°W
Launch Date Nov 11, 2024
Age 1.4 years
Type internet

Technical Details

Classification Payload
Mass 730.00 kg
Dry Mass 700.00 kg
Total Mass 730.00 kg
Length 0.30 m
Diameter 4.10 m
Span 29.00 m
Shape Box + pan
Manufacturer SPXS
Bus Type Starlink V2M
Phase Status In Orbit
Owner/State SPXS/US

Most Searched